| time (UTC) | temp F | wind direction | speed MPH | gust MPH | rain 1hr in | rain 24hr in | rain mn in | humidity % | barometer mb |
| 20260507165904 | 63 | 211 | 5.0 | 13.0 | 0.00 | 0.00 | 0.00 | 47 | 1015.7 |
| 20260507165804 | 63 | 209 | 5.0 | 13.0 | 0.00 | 0.00 | 0.00 | 48 | 1015.7 |
| 20260507165704 | 63 | 205 | 5.0 | 13.0 | 0.00 | 0.00 | 0.00 | 48 | 1015.7 |
| 20260507165604 | 63 | 205 | 5.0 | 13.0 | 0.00 | 0.00 | 0.00 | 48 | 1015.7 |
| 20260507165504 | 63 | 204 | 5.0 | 13.0 | 0.00 | 0.00 | 0.00 | 48 | 1015.8 |
| 20260507165306 | 62 | 202 | 5.0 | 11.0 | 0.00 | 0.00 | 0.00 | 49 | 1015.8 |
| 20260507165205 | 62 | 202 | 5.0 | 11.0 | 0.00 | 0.00 | 0.00 | 47 | 1015.8 |
| 20260507165004 | 62 | 202 | 5.0 | 14.0 | 0.00 | 0.00 | 0.00 | 48 | 1015.9 |
| 20260507164804 | 62 | 202 | 5.0 | 14.0 | 0.00 | 0.00 | 0.00 | 49 | 1016.0 |
| 20260507164704 | 62 | 205 | 5.0 | 14.0 | 0.00 | 0.00 | 0.00 | 49 | 1016.0 |
| 20260507164604 | 62 | 204 | 5.0 | 14.0 | 0.00 | 0.00 | 0.00 | 49 | 1016.1 |
| 20260507164504 | 62 | 208 | 5.0 | 14.0 | 0.00 | 0.00 | 0.00 | 49 | 1016.0 |
| 20260507164404 | 62 | 209 | 5.0 | 14.0 | 0.00 | 0.00 | 0.00 | 48 | 1016.0 |
| 20260507164303 | 62 | 214 | 5.0 | 14.0 | 0.00 | 0.00 | 0.00 | 48 | 1016.0 |
| 20260507164204 | 62 | 220 | 5.0 | 14.0 | 0.00 | 0.00 | 0.00 | 49 | 1016.0 |
| 20260507164104 | 62 | 223 | 4.0 | 10.0 | 0.00 | 0.00 | 0.00 | 49 | 1016.0 |
| 20260507164004 | 62 | 230 | 4.0 | 10.0 | 0.00 | 0.00 | 0.00 | 50 | 1016.0 |
| 20260507163704 | 62 | 226 | 5.0 | 14.0 | 0.00 | 0.00 | 0.00 | 51 | 1016.1 |
| 20260507163604 | 62 | 224 | 5.0 | 14.0 | 0.00 | 0.00 | 0.00 | 52 | 1016.1 |
| 20260507163503 | 62 | 218 | 5.0 | 14.0 | 0.00 | 0.00 | 0.00 | 52 | 1016.1 |
| 20260507163404 | 62 | 217 | 6.0 | 14.0 | 0.00 | 0.00 | 0.00 | 52 | 1016.1 |
| 20260507163304 | 61 | 218 | 6.0 | 14.0 | 0.00 | 0.00 | 0.00 | 51 | 1016.0 |
| 20260507163204 | 61 | 218 | 6.0 | 14.0 | 0.00 | 0.00 | 0.00 | 51 | 1016.0 |
| 20260507163104 | 62 | 217 | 6.0 | 14.0 | 0.00 | 0.00 | 0.00 | 50 | 1016.0 |
| 20260507163004 | 62 | 213 | 5.0 | 14.0 | 0.00 | 0.00 | 0.00 | 52 | 1016.1 |
| 20260507162904 | 62 | 212 | 5.0 | 14.0 | 0.00 | 0.00 | 0.00 | 52 | 1016.1 |
| 20260507162804 | 62 | 211 | 5.0 | 13.0 | 0.00 | 0.00 | 0.00 | 52 | 1016.0 |
| 20260507162703 | 61 | 211 | 5.0 | 13.0 | 0.00 | 0.00 | 0.00 | 52 | 1016.1 |
| 20260507162604 | 61 | 212 | 5.0 | 13.0 | 0.00 | 0.00 | 0.00 | 51 | 1016.2 |
| 20260507162504 | 61 | 215 | 5.0 | 11.0 | 0.00 | 0.00 | 0.00 | 51 | 1016.1 |
| 20260507162404 | 61 | 214 | 5.0 | 12.0 | 0.00 | 0.00 | 0.00 | 52 | 1016.1 |
| 20260507162306 | 61 | 215 | 5.0 | 12.0 | 0.00 | 0.00 | 0.00 | 53 | 1016.2 |
| 20260507162204 | 61 | 212 | 5.0 | 12.0 | 0.00 | 0.00 | 0.00 | 53 | 1016.2 |
| 20260507162104 | 61 | 212 | 5.0 | 12.0 | 0.00 | 0.00 | 0.00 | 52 | 1016.2 |
| 20260507162004 | 61 | 213 | 5.0 | 15.0 | 0.00 | 0.00 | 0.00 | 53 | 1016.2 |
| 20260507161903 | 61 | 212 | 5.0 | 15.0 | 0.00 | 0.00 | 0.00 | 52 | 1016.2 |
| 20260507161804 | 61 | 213 | 5.0 | 15.0 | 0.00 | 0.00 | 0.00 | 52 | 1016.2 |
| 20260507161604 | 61 | 215 | 5.0 | 15.0 | 0.00 | 0.00 | 0.00 | 53 | 1016.2 |
| 20260507161504 | 61 | 213 | 5.0 | 15.0 | 0.00 | 0.00 | 0.00 | 52 | 1016.2 |
| 20260507161404 | 61 | 214 | 6.0 | 15.0 | 0.00 | 0.00 | 0.00 | 53 | 1016.3 |
| 20260507161304 | 61 | 208 | 5.0 | 15.0 | 0.00 | 0.00 | 0.00 | 53 | 1016.3 |
| 20260507161204 | 61 | 207 | 6.0 | 15.0 | 0.00 | 0.00 | 0.00 | 53 | 1016.2 |
| 20260507161004 | 61 | 207 | 6.0 | 13.0 | 0.00 | 0.00 | 0.00 | 53 | 1016.4 |
| 20260507160904 | 60 | 211 | 6.0 | 13.0 | 0.00 | 0.00 | 0.00 | 54 | 1016.3 |
| 20260507160804 | 60 | 210 | 6.0 | 13.0 | 0.00 | 0.00 | 0.00 | 54 | 1016.4 |
| 20260507160604 | 60 | 215 | 6.0 | 15.0 | 0.00 | 0.00 | 0.00 | 54 | 1016.4 |
| 20260507160504 | 60 | 216 | 5.0 | 15.0 | 0.00 | 0.00 | 0.00 | 54 | 1016.3 |
| 20260507160404 | 60 | 217 | 5.0 | 15.0 | 0.00 | 0.00 | 0.00 | 54 | 1016.3 |
| 20260507160304 | 60 | 221 | 5.0 | 15.0 | 0.00 | 0.00 | 0.00 | 54 | 1016.4 |
| 20260507160204 | 60 | 224 | 5.0 | 15.0 | 0.00 | 0.00 | 0.00 | 54 | 1016.3 |
| 20260507160005 | 60 | 231 | 4.0 | 15.0 | 0.00 | 0.00 | 0.00 | 55 | 1016.3 |
| 20260507155904 | 60 | 231 | 4.0 | 15.0 | 0.00 | 0.00 | 0.00 | 54 | 1016.3 |
| 20260507155804 | 60 | 239 | 4.0 | 15.0 | 0.00 | 0.00 | 0.00 | 54 | 1016.3 |
| 20260507155705 | 60 | 235 | 4.0 | 9.0 | 0.00 | 0.00 | 0.00 | 56 | 1016.3 |
| 20260507155604 | 60 | 235 | 4.0 | 7.0 | 0.00 | 0.00 | 0.00 | 55 | 1016.2 |
| 20260507155507 | 60 | 235 | 4.0 | 7.0 | 0.00 | 0.00 | 0.00 | 57 | 1016.2 |
| 20260507001204 | 58 | 30 | 1.0 | 5.0 | 0.00 | 0.21 | 0.21 | 51 | 1016.9 |
| 20260507001104 | 58 | 29 | 1.0 | 5.0 | 0.00 | 0.21 | 0.21 | 50 | 1016.9 |
| 20260507001004 | 58 | 42 | 1.0 | 5.0 | 0.00 | 0.21 | 0.21 | 51 | 1017.0 |
| 20260507000904 | 58 | 43 | 1.0 | 5.0 | 0.00 | 0.21 | 0.21 | 51 | 1017.0 |
| 20260507000804 | 58 | 48 | 1.0 | 5.0 | 0.00 | 0.21 | 0.21 | 51 | 1017.0 |
| 20260507000705 | 58 | 43 | 1.0 | 5.0 | 0.00 | 0.21 | 0.21 | 51 | 1017.0 |
| 20260507000605 | 58 | 44 | 1.0 | 5.0 | 0.00 | 0.21 | 0.21 | 51 | 1017.0 |
| 20260507000505 | 58 | 40 | 2.0 | 6.0 | 0.00 | 0.21 | 0.21 | 51 | 1016.9 |
| 20260507000405 | 58 | 37 | 2.0 | 6.0 | 0.00 | 0.21 | 0.21 | 51 | 1016.9 |
| 20260507000306 | 58 | 20 | 2.0 | 6.0 | 0.00 | 0.21 | 0.21 | 50 | 1016.9 |
| 20260507000205 | 58 | 14 | 2.0 | 6.0 | 0.00 | 0.21 | 0.21 | 51 | 1016.8 |
| 20260507000105 | 58 | 9 | 3.0 | 6.0 | 0.00 | 0.21 | 0.21 | 50 | 1016.8 |
| 20260507000005 | 58 | 358 | 3.0 | 6.0 | 0.00 | 0.21 | 0.21 | 50 | 1016.8 |
| 20260506235904 | 58 | 347 | 3.0 | 8.0 | 0.00 | 0.21 | 0.21 | 49 | 1016.9 |
| 20260506235804 | 58 | 338 | 3.0 | 8.0 | 0.00 | 0.21 | 0.21 | 49 | 1016.9 |
| 20260506235704 | 58 | 335 | 3.0 | 8.0 | 0.00 | 0.21 | 0.21 | 49 | 1016.8 |
| 20260506235604 | 58 | 329 | 3.0 | 8.0 | 0.00 | 0.21 | 0.21 | 49 | 1016.9 |
| 20260506235504 | 58 | 327 | 3.0 | 8.0 | 0.00 | 0.21 | 0.21 | 50 | 1016.9 |
| 20260506235306 | 58 | 331 | 3.0 | 8.0 | 0.00 | 0.21 | 0.21 | 49 | 1016.9 |
| 20260506235204 | 58 | 332 | 3.0 | 8.0 | 0.00 | 0.21 | 0.21 | 49 | 1016.9 |
| 20260506235104 | 58 | 330 | 3.0 | 8.0 | 0.00 | 0.21 | 0.21 | 49 | 1016.9 |
| 20260506235004 | 58 | 333 | 3.0 | 8.0 | 0.00 | 0.21 | 0.21 | 49 | 1016.9 |
| 20260506234904 | 59 | 337 | 3.0 | 8.0 | 0.00 | 0.21 | 0.21 | 48 | 1016.9 |
| 20260506234705 | 59 | 339 | 3.0 | 9.0 | 0.00 | 0.21 | 0.21 | 50 | 1016.8 |
| 20260506234604 | 59 | 343 | 3.0 | 9.0 | 0.00 | 0.21 | 0.21 | 49 | 1016.8 |
| 20260506234505 | 59 | 342 | 3.0 | 9.0 | 0.00 | 0.21 | 0.21 | 49 | 1016.8 |
| 20260506234404 | 59 | 344 | 4.0 | 9.0 | 0.00 | 0.21 | 0.21 | 48 | 1016.8 |
| 20260506234304 | 59 | 344 | 4.0 | 9.0 | 0.00 | 0.21 | 0.21 | 47 | 1016.8 |
| 20260506234204 | 59 | 346 | 4.0 | 9.0 | 0.00 | 0.21 | 0.21 | 47 | 1016.8 |
| 20260506234105 | 59 | 354 | 3.0 | 9.0 | 0.00 | 0.21 | 0.21 | 47 | 1016.8 |
| 20260506234004 | 60 | 359 | 3.0 | 9.0 | 0.00 | 0.21 | 0.21 | 47 | 1016.8 |
| 20260506233904 | 60 | 4 | 3.0 | 9.0 | 0.00 | 0.21 | 0.21 | 47 | 1016.8 |
| 20260506233804 | 60 | 8 | 3.0 | 7.0 | 0.00 | 0.21 | 0.21 | 47 | 1016.8 |
| 20260506233705 | 60 | 16 | 3.0 | 7.0 | 0.00 | 0.21 | 0.21 | 47 | 1016.8 |
| 20260506233505 | 60 | 27 | 2.0 | 7.0 | 0.00 | 0.21 | 0.21 | 47 | 1016.8 |
| 20260506233405 | 60 | 31 | 2.0 | 7.0 | 0.00 | 0.21 | 0.21 | 49 | 1016.7 |
| 20260506233305 | 59 | 31 | 2.0 | 7.0 | 0.00 | 0.21 | 0.21 | 48 | 1016.7 |
| 20260506233105 | 59 | 13 | 2.0 | 7.0 | 0.00 | 0.21 | 0.21 | 48 | 1016.8 |
| 20260506233005 | 59 | 16 | 2.0 | 7.0 | 0.00 | 0.21 | 0.21 | 48 | 1016.8 |
| 20260506232905 | 59 | 28 | 2.0 | 7.0 | 0.00 | 0.21 | 0.21 | 49 | 1016.8 |
| 20260506232805 | 59 | 33 | 2.0 | 8.0 | 0.00 | 0.21 | 0.21 | 50 | 1016.7 |
| 20260506232705 | 59 | 34 | 2.0 | 8.0 | 0.00 | 0.21 | 0.21 | 49 | 1016.7 |
| 20260506232604 | 59 | 29 | 2.0 | 8.0 | 0.00 | 0.21 | 0.21 | 50 | 1016.7 |
| 20260506232504 | 59 | 29 | 3.0 | 8.0 | 0.00 | 0.21 | 0.21 | 49 | 1016.7 |
| 20260506232404 | 59 | 24 | 3.0 | 8.0 | 0.00 | 0.21 | 0.21 | 49 | 1016.7 |
| 20260506232306 | 58 | 22 | 3.0 | 8.0 | 0.00 | 0.21 | 0.21 | 49 | 1016.6 |
| 20260506232205 | 58 | 19 | 4.0 | 8.0 | 0.00 | 0.21 | 0.21 | 49 | 1016.6 |
| 20260506232104 | 58 | 18 | 4.0 | 8.0 | 0.00 | 0.21 | 0.21 | 49 | 1016.7 |
| 20260506232004 | 58 | 18 | 4.0 | 8.0 | 0.00 | 0.21 | 0.21 | 48 | 1016.7 |
| 20260506231904 | 58 | 13 | 4.0 | 8.0 | 0.00 | 0.21 | 0.21 | 48 | 1016.6 |
| 20260506231805 | 58 | 6 | 4.0 | 8.0 | 0.00 | 0.21 | 0.21 | 49 | 1016.6 |
| 20260506231605 | 59 | 9 | 4.0 | 8.0 | 0.00 | 0.21 | 0.21 | 48 | 1016.6 |
| 20260506231312 | 59 | 8 | 3.0 | 8.0 | 0.00 | 0.21 | 0.21 | 49 | 1016.6 |
| 20260506231205 | 59 | 11 | 3.0 | 8.0 | 0.00 | 0.21 | 0.21 | 48 | 1016.6 |
| 20260506231105 | 59 | 15 | 3.0 | 8.0 | 0.00 | 0.21 | 0.21 | 48 | 1016.6 |
| 20260506231005 | 59 | 20 | 3.0 | 8.0 | 0.00 | 0.21 | 0.21 | 48 | 1016.6 |
| 20260506230905 | 59 | 40 | 2.0 | 8.0 | 0.00 | 0.21 | 0.21 | 47 | 1016.6 |
| 20260506230705 | 60 | 64 | 2.0 | 7.0 | 0.00 | 0.21 | 0.21 | 48 | 1016.6 |
| 20260506230605 | 60 | 62 | 2.0 | 7.0 | 0.00 | 0.21 | 0.21 | 47 | 1016.6 |
| 20260506230505 | 60 | 63 | 2.0 | 7.0 | 0.00 | 0.21 | 0.21 | 47 | 1016.6 |
| 20260506230404 | 60 | 62 | 2.0 | 7.0 | 0.00 | 0.21 | 0.21 | 46 | 1016.6 |
| 20260506230304 | 60 | 49 | 2.0 | 7.0 | 0.00 | 0.21 | 0.21 | 46 | 1016.6 |
| 20260506230104 | 60 | 30 | 2.0 | 7.0 | 0.00 | 0.21 | 0.21 | 45 | 1016.6 |
| 20260506230005 | 60 | 19 | 2.0 | 6.0 | 0.00 | 0.21 | 0.21 | 46 | 1016.6 |
| 20260506225904 | 60 | 358 | 2.0 | 5.0 | 0.00 | 0.21 | 0.21 | 46 | 1016.6 |
| 20260506225805 | 60 | 1 | 2.0 | 5.0 | 0.00 | 0.21 | 0.21 | 47 | 1016.6 |
| 20260506225605 | 59 | 9 | 2.0 | 5.0 | 0.00 | 0.21 | 0.21 | 47 | 1016.6 |
| 20260506225505 | 60 | 358 | 2.0 | 5.0 | 0.00 | 0.21 | 0.21 | 46 | 1016.6 |
| 20260506225404 | 60 | 5 | 2.0 | 5.0 | 0.00 | 0.21 | 0.21 | 45 | 1016.6 |
| 20260506225306 | 60 | 30 | 2.0 | 8.0 | 0.00 | 0.21 | 0.21 | 46 | 1016.6 |
| 20260506225204 | 60 | 43 | 2.0 | 8.0 | 0.00 | 0.21 | 0.21 | 45 | 1016.6 |
| 20260506225104 | 60 | 51 | 2.0 | 8.0 | 0.00 | 0.21 | 0.21 | 46 | 1016.6 |
| 20260506225004 | 60 | 54 | 2.0 | 8.0 | 0.00 | 0.21 | 0.21 | 46 | 1016.6 |
| 20260506224904 | 60 | 54 | 2.0 | 8.0 | 0.00 | 0.21 | 0.21 | 45 | 1016.6 |
| 20260506224804 | 60 | 55 | 2.0 | 8.0 | 0.00 | 0.21 | 0.21 | 46 | 1016.6 |
| 20260506224705 | 60 | 49 | 2.0 | 8.0 | 0.00 | 0.21 | 0.21 | 45 | 1016.6 |
| 20260506224604 | 60 | 47 | 2.0 | 8.0 | 0.00 | 0.21 | 0.21 | 45 | 1016.5 |
| 20260506224504 | 60 | 52 | 2.0 | 8.0 | 0.00 | 0.21 | 0.21 | 45 | 1016.5 |
| 20260506224404 | 60 | 46 | 2.0 | 8.0 | 0.00 | 0.21 | 0.21 | 44 | 1016.5 |
| 20260506224304 | 60 | 47 | 2.0 | 5.0 | 0.00 | 0.21 | 0.21 | 44 | 1016.5 |
| 20260506224204 | 60 | 52 | 2.0 | 6.0 | 0.00 | 0.21 | 0.21 | 44 | 1016.5 |
| 20260506224104 | 60 | 56 | 2.0 | 9.0 | 0.00 | 0.21 | 0.21 | 44 | 1016.5 |
| 20260506224004 | 60 | 59 | 2.0 | 9.0 | 0.00 | 0.21 | 0.21 | 46 | 1016.5 |
| 20260506223904 | 60 | 46 | 2.0 | 9.0 | 0.00 | 0.21 | 0.21 | 46 | 1016.5 |
| 20260506223804 | 60 | 37 | 2.0 | 9.0 | 0.00 | 0.21 | 0.21 | 46 | 1016.4 |
| 20260506223604 | 60 | 42 | 2.0 | 9.0 | 0.00 | 0.21 | 0.21 | 46 | 1016.4 |
| 20260506223404 | 60 | 35 | 2.0 | 9.0 | 0.00 | 0.21 | 0.21 | 46 | 1016.4 |
| 20260506223304 | 60 | 34 | 3.0 | 9.0 | 0.00 | 0.21 | 0.21 | 45 | 1016.4 |
| 20260506223204 | 60 | 23 | 3.0 | 9.0 | 0.00 | 0.21 | 0.21 | 46 | 1016.4 |
| 20260506223104 | 60 | 18 | 3.0 | 8.0 | 0.00 | 0.21 | 0.21 | 45 | 1016.4 |
| 20260506223004 | 60 | 17 | 3.0 | 8.0 | 0.00 | 0.21 | 0.21 | 44 | 1016.4 |
| 20260506222904 | 60 | 26 | 3.0 | 8.0 | 0.00 | 0.21 | 0.21 | 45 | 1016.3 |
| 20260506222804 | 60 | 34 | 3.0 | 8.0 | 0.00 | 0.21 | 0.21 | 46 | 1016.4 |
| 20260506222704 | 60 | 40 | 3.0 | 8.0 | 0.00 | 0.21 | 0.21 | 46 | 1016.4 |
| 20260506222604 | 60 | 38 | 3.0 | 8.0 | 0.00 | 0.21 | 0.21 | 45 | 1016.4 |
| 20260506222306 | 60 | 55 | 2.0 | 7.0 | 0.00 | 0.21 | 0.21 | 45 | 1016.4 |
| 20260506222204 | 60 | 67 | 2.0 | 6.0 | 0.00 | 0.21 | 0.21 | 46 | 1016.4 |
| 20260506222004 | 60 | 80 | 2.0 | 6.0 | 0.00 | 0.21 | 0.21 | 45 | 1016.4 |
| 20260506221904 | 60 | 80 | 2.0 | 6.0 | 0.00 | 0.21 | 0.21 | 44 | 1016.4 |
| 20260506221804 | 60 | 77 | 2.0 | 5.0 | 0.00 | 0.21 | 0.21 | 45 | 1016.4 |
| 20260506221705 | 60 | 76 | 2.0 | 6.0 | 0.00 | 0.21 | 0.21 | 46 | 1016.4 |
| 20260506221604 | 60 | 73 | 2.0 | 6.0 | 0.00 | 0.21 | 0.21 | 46 | 1016.4 |
| 20260506221504 | 60 | 68 | 2.0 | 6.0 | 0.00 | 0.21 | 0.21 | 47 | 1016.4 |
| 20260506221404 | 60 | 66 | 2.0 | 6.0 | 0.00 | 0.21 | 0.21 | 46 | 1016.4 |
| 20260506221304 | 60 | 65 | 2.0 | 6.0 | 0.00 | 0.21 | 0.21 | 45 | 1016.4 |
| 20260506221204 | 60 | 65 | 2.0 | 6.0 | 0.00 | 0.21 | 0.21 | 45 | 1016.4 |
| 20260506221104 | 60 | 65 | 2.0 | 6.0 | 0.00 | 0.21 | 0.21 | 45 | 1016.4 |
| 20260506220904 | 60 | 46 | 2.0 | 6.0 | 0.00 | 0.21 | 0.21 | 46 | 1016.3 |
| 20260506220804 | 60 | 41 | 2.0 | 6.0 | 0.00 | 0.21 | 0.21 | 45 | 1016.4 |
| 20260506220704 | 60 | 31 | 2.0 | 7.0 | 0.00 | 0.21 | 0.21 | 46 | 1016.3 |
| 20260506220504 | 60 | 31 | 2.0 | 7.0 | 0.00 | 0.21 | 0.21 | 46 | 1016.3 |
| 20260506220404 | 60 | 32 | 2.0 | 7.0 | 0.00 | 0.21 | 0.21 | 46 | 1016.4 |
| 20260506220304 | 60 | 36 | 2.0 | 7.0 | 0.00 | 0.21 | 0.21 | 46 | 1016.4 |
| 20260506220204 | 59 | 39 | 3.0 | 7.0 | 0.00 | 0.21 | 0.21 | 45 | 1016.4 |
| 20260506220104 | 60 | 38 | 3.0 | 7.0 | 0.00 | 0.21 | 0.21 | 46 | 1016.4 |
| 20260506220004 | 60 | 46 | 3.0 | 11.0 | 0.00 | 0.21 | 0.21 | 45 | 1016.4 |
| 20260506215904 | 60 | 50 | 3.0 | 11.0 | 0.00 | 0.21 | 0.21 | 45 | 1016.4 |
| 20260506215704 | 60 | 62 | 3.0 | 11.0 | 0.00 | 0.21 | 0.21 | 46 | 1016.4 |
| 20260506215604 | 60 | 60 | 3.0 | 11.0 | 0.00 | 0.21 | 0.21 | 47 | 1016.4 |
| 20260506215504 | 60 | 61 | 3.0 | 11.0 | 0.00 | 0.21 | 0.21 | 47 | 1016.4 |
| 20260506215306 | 60 | 61 | 3.0 | 11.0 | 0.00 | 0.21 | 0.21 | 46 | 1016.5 |
| 20260506215104 | 60 | 70 | 3.0 | 11.0 | 0.00 | 0.21 | 0.21 | 47 | 1016.5 |
| 20260506215006 | 60 | 72 | 3.0 | 8.0 | 0.00 | 0.21 | 0.21 | 46 | 1016.5 |
| 20260506214904 | 60 | 68 | 3.0 | 8.0 | 0.00 | 0.21 | 0.21 | 47 | 1016.6 |
| 20260506214804 | 60 | 60 | 2.0 | 8.0 | 0.00 | 0.21 | 0.21 | 47 | 1016.6 |
| 20260506214704 | 60 | 53 | 3.0 | 8.0 | 0.00 | 0.21 | 0.21 | 47 | 1016.6 |
| 20260506214604 | 59 | 41 | 3.0 | 8.0 | 0.00 | 0.21 | 0.21 | 47 | 1016.5 |
| 20260506214505 | 59 | 32 | 3.0 | 8.0 | 0.00 | 0.21 | 0.21 | 46 | 1016.6 |
| 20260506214404 | 59 | 37 | 3.0 | 8.0 | 0.00 | 0.21 | 0.21 | 48 | 1016.6 |
| 20260506214204 | 59 | 359 | 3.0 | 6.0 | 0.00 | 0.21 | 0.21 | 47 | 1016.6 |
| 20260506214104 | 59 | 350 | 3.0 | 6.0 | 0.00 | 0.21 | 0.21 | 47 | 1016.6 |
| 20260506213904 | 60 | 347 | 3.0 | 6.0 | 0.00 | 0.21 | 0.21 | 47 | 1016.6 |
| 20260506213704 | 60 | 348 | 3.0 | 6.0 | 0.00 | 0.21 | 0.21 | 48 | 1016.6 |
| 20260506213604 | 60 | 354 | 3.0 | 7.0 | 0.00 | 0.21 | 0.21 | 46 | 1016.6 |
| 20260506213404 | 60 | 353 | 4.0 | 7.0 | 0.00 | 0.21 | 0.21 | 46 | 1016.7 |
| 20260506213304 | 60 | 348 | 4.0 | 7.0 | 0.00 | 0.21 | 0.21 | 45 | 1016.7 |
| 20260506213204 | 60 | 345 | 4.0 | 8.0 | 0.00 | 0.21 | 0.21 | 46 | 1016.6 |
| 20260506213104 | 60 | 342 | 4.0 | 8.0 | 0.00 | 0.21 | 0.21 | 46 | 1016.7 |
| 20260506212904 | 60 | 347 | 4.0 | 8.0 | 0.00 | 0.21 | 0.21 | 47 | 1016.7 |
| 20260506212804 | 60 | 356 | 4.0 | 9.0 | 0.00 | 0.21 | 0.21 | 46 | 1016.7 |
| 20260506212704 | 60 | 8 | 4.0 | 9.0 | 0.00 | 0.21 | 0.21 | 46 | 1016.7 |
| 20260506212504 | 61 | 14 | 3.0 | 9.0 | 0.00 | 0.21 | 0.21 | 47 | 1016.7 |
| 20260506212404 | 61 | 9 | 3.0 | 9.0 | 0.00 | 0.21 | 0.21 | 46 | 1016.7 |
| 20260506212306 | 61 | 15 | 3.0 | 9.0 | 0.00 | 0.21 | 0.21 | 46 | 1016.7 |
| 20260506212204 | 61 | 30 | 3.0 | 9.0 | 0.00 | 0.21 | 0.21 | 45 | 1016.7 |
| 20260506212104 | 61 | 39 | 3.0 | 9.0 | 0.00 | 0.21 | 0.21 | 45 | 1016.7 |
| 20260506212004 | 61 | 45 | 3.0 | 9.0 | 0.00 | 0.21 | 0.21 | 44 | 1016.7 |
| 20260506211904 | 61 | 43 | 2.0 | 9.0 | 0.00 | 0.21 | 0.21 | 44 | 1016.8 |
| 20260506211804 | 62 | 39 | 2.0 | 9.0 | 0.00 | 0.21 | 0.21 | 45 | 1016.8 |
| 20260506211704 | 62 | 5 | 2.0 | 9.0 | 0.00 | 0.21 | 0.21 | 45 | 1016.8 |
| 20260506211604 | 61 | 357 | 2.0 | 6.0 | 0.00 | 0.21 | 0.21 | 43 | 1016.8 |
| 20260506211504 | 61 | 355 | 2.0 | 6.0 | 0.00 | 0.21 | 0.21 | 44 | 1016.7 |
| 20260506211404 | 61 | 359 | 2.0 | 6.0 | 0.00 | 0.21 | 0.21 | 43 | 1016.7 |
| 20260506211304 | 61 | 359 | 3.0 | 8.0 | 0.00 | 0.21 | 0.21 | 45 | 1016.8 |
| 20260506211204 | 61 | 8 | 3.0 | 8.0 | 0.00 | 0.21 | 0.21 | 43 | 1016.7 |
| 20260506211005 | 61 | 4 | 3.0 | 8.0 | 0.00 | 0.21 | 0.21 | 44 | 1016.7 |
| 20260506210904 | 61 | 19 | 3.0 | 8.0 | 0.00 | 0.21 | 0.21 | 44 | 1016.8 |
| 20260506210804 | 61 | 34 | 3.0 | 8.0 | 0.00 | 0.21 | 0.21 | 44 | 1016.8 |
| 20260506210704 | 61 | 58 | 3.0 | 8.0 | 0.00 | 0.21 | 0.21 | 44 | 1016.7 |
| 20260506210604 | 61 | 70 | 3.0 | 8.0 | 0.00 | 0.21 | 0.21 | 44 | 1016.8 |
| 20260506210504 | 61 | 80 | 3.0 | 8.0 | 0.00 | 0.21 | 0.21 | 46 | 1016.8 |
| 20260506210404 | 61 | 85 | 3.0 | 8.0 | 0.00 | 0.21 | 0.21 | 46 | 1016.8 |
| 20260506210304 | 61 | 88 | 3.0 | 9.0 | 0.00 | 0.21 | 0.21 | 45 | 1016.8 |
| 20260506210204 | 61 | 82 | 3.0 | 13.0 | 0.00 | 0.21 | 0.21 | 46 | 1016.9 |
| 20260506210004 | 61 | 82 | 3.0 | 13.0 | 0.00 | 0.21 | 0.21 | 45 | 1016.8 |
| 20260506205704 | 61 | 78 | 3.0 | 13.0 | 0.00 | 0.21 | 0.21 | 45 | 1016.8 |
| 20260506205504 | 61 | 74 | 2.0 | 13.0 | 0.00 | 0.21 | 0.21 | 44 | 1016.9 |
| 20260506205404 | 61 | 71 | 2.0 | 13.0 | 0.00 | 0.21 | 0.21 | 44 | 1016.9 |
| 20260506205306 | 62 | 71 | 2.0 | 13.0 | 0.00 | 0.21 | 0.21 | 45 | 1016.9 |
| 20260506205105 | 62 | 78 | 2.0 | 7.0 | 0.00 | 0.21 | 0.21 | 46 | 1016.9 |
| 20260506205004 | 61 | 72 | 2.0 | 7.0 | 0.00 | 0.21 | 0.21 | 45 | 1016.9 |
| 20260506204905 | 61 | 75 | 2.0 | 7.0 | 0.00 | 0.21 | 0.21 | 47 | 1016.9 |
| 20260506204705 | 61 | 77 | 2.0 | 7.0 | 0.00 | 0.21 | 0.21 | 44 | 1017.0 |
| 20260506204604 | 61 | 78 | 2.0 | 7.0 | 0.00 | 0.21 | 0.21 | 45 | 1017.1 |
| 20260506204404 | 60 | 82 | 3.0 | 8.0 | 0.00 | 0.21 | 0.21 | 45 | 1017.0 |
| 20260506204304 | 60 | 83 | 3.0 | 10.0 | 0.00 | 0.21 | 0.21 | 46 | 1017.1 |
| 20260506204204 | 60 | 86 | 4.0 | 13.0 | 0.00 | 0.21 | 0.21 | 46 | 1017.0 |
| 20260506204105 | 60 | 89 | 4.0 | 14.0 | 0.00 | 0.21 | 0.21 | 47 | 1017.1 |
| 20260506204004 | 60 | 91 | 4.0 | 14.0 | 0.00 | 0.21 | 0.21 | 47 | 1017.1 |
| 20260506203904 | 60 | 90 | 4.0 | 14.0 | 0.00 | 0.21 | 0.21 | 46 | 1017.1 |
| 20260506203804 | 60 | 89 | 3.0 | 14.0 | 0.00 | 0.21 | 0.21 | 46 | 1017.1 |
| 20260506203704 | 60 | 90 | 3.0 | 14.0 | 0.00 | 0.21 | 0.21 | 46 | 1017.2 |
| 20260506203604 | 60 | 88 | 3.0 | 14.0 | 0.00 | 0.21 | 0.21 | 45 | 1017.2 |
| 20260506203504 | 60 | 85 | 3.0 | 14.0 | 0.00 | 0.21 | 0.21 | 44 | 1017.2 |
| 20260506203404 | 60 | 78 | 3.0 | 14.0 | 0.00 | 0.21 | 0.21 | 45 | 1017.2 |
| 20260506203304 | 60 | 71 | 3.0 | 14.0 | 0.00 | 0.21 | 0.21 | 45 | 1017.2 |
| 20260506203104 | 60 | 14 | 3.0 | 8.0 | 0.00 | 0.21 | 0.21 | 47 | 1017.3 |
| 20260506203004 | 60 | 7 | 3.0 | 8.0 | 0.00 | 0.21 | 0.21 | 46 | 1017.3 |
| 20260506202904 | 60 | 358 | 3.0 | 8.0 | 0.00 | 0.21 | 0.21 | 46 | 1017.2 |
| 20260506202804 | 60 | 356 | 3.0 | 8.0 | 0.00 | 0.21 | 0.21 | 45 | 1017.2 |
| 20260506202704 | 60 | 3 | 3.0 | 8.0 | 0.00 | 0.21 | 0.21 | 46 | 1017.3 |
| 20260506202505 | 60 | 14 | 3.0 | 8.0 | 0.00 | 0.21 | 0.21 | 45 | 1017.3 |
| 20260506202404 | 60 | 19 | 3.0 | 8.0 | 0.00 | 0.21 | 0.21 | 46 | 1017.3 |
| 20260506202306 | 60 | 26 | 3.0 | 8.0 | 0.00 | 0.21 | 0.21 | 45 | 1017.4 |
| 20260506202204 | 60 | 36 | 3.0 | 8.0 | 0.00 | 0.21 | 0.21 | 47 | 1017.4 |
| 20260506202004 | 60 | 54 | 3.0 | 8.0 | 0.00 | 0.21 | 0.21 | 47 | 1017.4 |
| 20260506201804 | 59 | 56 | 3.0 | 8.0 | 0.00 | 0.21 | 0.21 | 48 | 1017.4 |
| 20260506201704 | 59 | 52 | 3.0 | 8.0 | 0.00 | 0.21 | 0.21 | 48 | 1017.3 |
| 20260506201604 | 59 | 60 | 3.0 | 8.0 | 0.00 | 0.21 | 0.21 | 47 | 1017.4 |
| 20260506201404 | 59 | 51 | 4.0 | 10.0 | 0.00 | 0.21 | 0.21 | 46 | 1017.5 |
| 20260506201204 | 59 | 31 | 4.0 | 10.0 | 0.00 | 0.21 | 0.21 | 47 | 1017.6 |
| 20260506201104 | 59 | 26 | 4.0 | 10.0 | 0.00 | 0.21 | 0.21 | 47 | 1017.6 |
| 20260506201004 | 59 | 29 | 4.0 | 10.0 | 0.00 | 0.21 | 0.21 | 47 | 1017.6 |
| 20260506200904 | 59 | 30 | 4.0 | 10.0 | 0.00 | 0.21 | 0.21 | 46 | 1017.6 |
| 20260506200704 | 60 | 21 | 3.0 | 10.0 | 0.00 | 0.21 | 0.21 | 46 | 1017.7 |
| 20260506200604 | 60 | 19 | 3.0 | 10.0 | 0.00 | 0.21 | 0.21 | 46 | 1017.7 |
| 20260506200504 | 60 | 14 | 2.0 | 8.0 | 0.00 | 0.21 | 0.21 | 47 | 1017.7 |
| 20260506200404 | 60 | 14 | 2.0 | 8.0 | 0.00 | 0.21 | 0.21 | 47 | 1017.7 |
| 20260506200304 | 60 | 20 | 2.0 | 8.0 | 0.00 | 0.21 | 0.21 | 46 | 1017.7 |
| 20260506200204 | 60 | 46 | 2.0 | 7.0 | 0.00 | 0.21 | 0.21 | 47 | 1017.7 |
| 20260506200004 | 60 | 87 | 2.0 | 10.0 | 0.00 | 0.21 | 0.21 | 50 | 1017.7 |
| 20260506195905 | 60 | 93 | 2.0 | 11.0 | 0.00 | 0.21 | 0.21 | 49 | 1017.7 |
| 20260506195805 | 59 | 100 | 2.0 | 11.0 | 0.00 | 0.21 | 0.21 | 49 | 1017.7 |
| 20260506195705 | 59 | 101 | 3.0 | 11.0 | 0.00 | 0.21 | 0.21 | 49 | 1017.6 |
| 20260506195605 | 59 | 102 | 3.0 | 11.0 | 0.00 | 0.21 | 0.21 | 47 | 1017.6 |
| 20260506195505 | 59 | 101 | 3.0 | 11.0 | 0.00 | 0.21 | 0.21 | 48 | 1017.8 |
| 20260506195405 | 59 | 100 | 3.0 | 11.0 | 0.00 | 0.21 | 0.21 | 49 | 1017.8 |
| 20260506195205 | 59 | 98 | 3.0 | 11.0 | 0.00 | 0.21 | 0.21 | 48 | 1017.8 |
| 20260506195105 | 59 | 97 | 3.0 | 11.0 | 0.00 | 0.21 | 0.21 | 47 | 1017.8 |
| 20260506195005 | 59 | 93 | 2.0 | 11.0 | 0.00 | 0.21 | 0.21 | 46 | 1017.8 |
| 20260506194905 | 59 | 91 | 2.0 | 7.0 | 0.00 | 0.21 | 0.21 | 48 | 1017.8 |
| 20260506194805 | 59 | 88 | 2.0 | 7.0 | 0.00 | 0.21 | 0.21 | 48 | 1017.7 |
| 20260506194705 | 59 | 84 | 2.0 | 7.0 | 0.00 | 0.21 | 0.21 | 47 | 1017.8 |
| 20260506194605 | 59 | 68 | 2.0 | 7.0 | 0.00 | 0.21 | 0.21 | 47 | 1017.8 |
| 20260506194505 | 59 | 57 | 2.0 | 5.0 | 0.00 | 0.21 | 0.21 | 46 | 1017.8 |
| 20260506194405 | 59 | 51 | 2.0 | 7.0 | 0.00 | 0.21 | 0.21 | 49 | 1017.9 |
| 20260506194305 | 59 | 53 | 2.0 | 7.0 | 0.00 | 0.21 | 0.21 | 46 | 1017.9 |
| 20260506194205 | 59 | 49 | 3.0 | 7.0 | 0.00 | 0.21 | 0.21 | 46 | 1017.9 |
| 20260506194105 | 59 | 48 | 3.0 | 7.0 | 0.00 | 0.21 | 0.21 | 45 | 1017.9 |
| 20260506193905 | 59 | 43 | 3.0 | 8.0 | 0.00 | 0.21 | 0.21 | 46 | 1018.0 |
| 20260506193704 | 59 | 33 | 3.0 | 9.0 | 0.00 | 0.21 | 0.21 | 45 | 1017.9 |
| 20260506193605 | 59 | 38 | 3.0 | 9.0 | 0.00 | 0.21 | 0.21 | 46 | 1018.0 |
| 20260506193505 | 59 | 42 | 3.0 | 9.0 | 0.00 | 0.21 | 0.21 | 47 | 1018.0 |
| 20260506193305 | 59 | 39 | 3.0 | 10.0 | 0.00 | 0.21 | 0.21 | 46 | 1018.0 |
| 20260506193205 | 59 | 35 | 3.0 | 10.0 | 0.00 | 0.21 | 0.21 | 47 | 1018.0 |
| 20260506193104 | 59 | 33 | 3.0 | 10.0 | 0.00 | 0.21 | 0.21 | 51 | 1018.1 |
| 20260506193004 | 59 | 33 | 3.0 | 10.0 | 0.00 | 0.21 | 0.21 | 47 | 1018.0 |
| 20260506192905 | 59 | 40 | 3.0 | 10.0 | 0.00 | 0.21 | 0.21 | 47 | 1018.1 |
| 20260506192805 | 59 | 48 | 3.0 | 10.0 | 0.00 | 0.21 | 0.21 | 46 | 1018.1 |
| 20260506192704 | 58 | 59 | 3.0 | 10.0 | 0.00 | 0.21 | 0.21 | 49 | 1018.0 |
| 20260506192604 | 58 | 52 | 3.0 | 10.0 | 0.00 | 0.21 | 0.21 | 46 | 1018.0 |
| 20260506192404 | 58 | 48 | 3.0 | 10.0 | 0.00 | 0.21 | 0.21 | 45 | 1018.0 |
| 20260506192306 | 58 | 57 | 3.0 | 8.0 | 0.00 | 0.21 | 0.21 | 45 | 1018.1 |
| 20260506192204 | 58 | 56 | 4.0 | 8.0 | 0.00 | 0.21 | 0.21 | 49 | 1018.1 |
| 20260506192004 | 58 | 35 | 4.0 | 12.0 | 0.00 | 0.21 | 0.21 | 47 | 1018.0 |
| 20260506191904 | 58 | 23 | 4.0 | 12.0 | 0.00 | 0.21 | 0.21 | 49 | 1018.0 |
| 20260506191805 | 58 | 14 | 4.0 | 12.0 | 0.00 | 0.21 | 0.21 | 47 | 1018.0 |
| 20260506191704 | 58 | 7 | 4.0 | 12.0 | 0.00 | 0.21 | 0.21 | 47 | 1018.0 |
| 20260506191604 | 58 | 9 | 4.0 | 12.0 | 0.00 | 0.21 | 0.21 | 49 | 1018.0 |
| 20260506191504 | 58 | 10 | 4.0 | 12.0 | 0.00 | 0.21 | 0.21 | 50 | 1017.9 |
| 20260506191404 | 58 | 4 | 4.0 | 12.0 | 0.00 | 0.21 | 0.21 | 49 | 1017.9 |
| 20260506191304 | 58 | 6 | 4.0 | 12.0 | 0.00 | 0.21 | 0.21 | 49 | 1017.9 |
| 20260506191205 | 58 | 14 | 4.0 | 12.0 | 0.00 | 0.21 | 0.21 | 49 | 1018.0 |
| 20260506191105 | 58 | 17 | 4.0 | 12.0 | 0.00 | 0.21 | 0.21 | 48 | 1018.0 |
| 20260506191005 | 58 | 17 | 4.0 | 11.0 | 0.00 | 0.21 | 0.21 | 48 | 1018.0 |
| 20260506190905 | 58 | 26 | 4.0 | 11.0 | 0.00 | 0.21 | 0.21 | 48 | 1018.0 |
| 20260506190705 | 58 | 43 | 4.0 | 15.0 | 0.00 | 0.21 | 0.21 | 48 | 1018.0 |
| 20260506190605 | 58 | 50 | 4.0 | 15.0 | 0.00 | 0.21 | 0.21 | 50 | 1018.0 |
| 20260506190505 | 58 | 46 | 4.0 | 15.0 | 0.00 | 0.21 | 0.21 | 48 | 1018.0 |
| 20260506190405 | 58 | 50 | 4.0 | 15.0 | 0.00 | 0.21 | 0.21 | 49 | 1017.9 |
| 20260506190305 | 58 | 50 | 4.0 | 15.0 | 0.00 | 0.21 | 0.21 | 51 | 1017.9 |
| 20260506190205 | 58 | 51 | 4.0 | 15.0 | 0.00 | 0.21 | 0.21 | 48 | 1017.9 |
| 20260506190105 | 58 | 57 | 4.0 | 15.0 | 0.00 | 0.21 | 0.21 | 48 | 1017.9 |
| 20260506190005 | 58 | 64 | 4.0 | 15.0 | 0.00 | 0.21 | 0.21 | 48 | 1017.8 |
| 20260506185905 | 58 | 64 | 4.0 | 15.0 | 0.00 | 0.21 | 0.21 | 47 | 1017.8 |
| 20260506185804 | 58 | 70 | 4.0 | 15.0 | 0.00 | 0.21 | 0.21 | 46 | 1017.9 |
| 20260506185705 | 58 | 70 | 4.0 | 11.0 | 0.00 | 0.21 | 0.21 | 46 | 1017.8 |
| 20260506185604 | 58 | 72 | 4.0 | 11.0 | 0.00 | 0.21 | 0.21 | 45 | 1017.8 |
| 20260506185504 | 58 | 80 | 4.0 | 11.0 | 0.00 | 0.21 | 0.21 | 47 | 1017.9 |
| 20260506185205 | 58 | 85 | 4.0 | 11.0 | 0.00 | 0.21 | 0.21 | 44 | 1017.8 |
| 20260506185104 | 57 | 86 | 4.0 | 12.0 | 0.00 | 0.21 | 0.21 | 48 | 1017.9 |
| 20260506185004 | 57 | 87 | 4.0 | 12.0 | 0.00 | 0.21 | 0.21 | 47 | 1017.8 |
| 20260506184905 | 57 | 84 | 3.0 | 12.0 | 0.00 | 0.21 | 0.21 | 48 | 1017.8 |
| 20260506184804 | 57 | 81 | 3.0 | 12.0 | 0.00 | 0.21 | 0.21 | 49 | 1017.8 |
| 20260506184704 | 57 | 78 | 3.0 | 12.0 | 0.00 | 0.21 | 0.21 | 48 | 1017.8 |
| 20260506184505 | 57 | 61 | 3.0 | 12.0 | 0.00 | 0.21 | 0.21 | 48 | 1017.9 |
| 20260506184404 | 57 | 55 | 4.0 | 12.0 | 0.00 | 0.21 | 0.21 | 48 | 1018.0 |
| 20260506184304 | 57 | 51 | 4.0 | 12.0 | 0.00 | 0.21 | 0.21 | 47 | 1017.9 |
| 20260506184204 | 57 | 50 | 4.0 | 12.0 | 0.00 | 0.21 | 0.21 | 49 | 1018.0 |
| 20260506184104 | 57 | 55 | 4.0 | 10.0 | 0.00 | 0.21 | 0.21 | 48 | 1017.9 |
| 20260506184004 | 57 | 60 | 4.0 | 10.0 | 0.00 | 0.21 | 0.21 | 47 | 1017.9 |
| 20260506183905 | 57 | 64 | 5.0 | 14.0 | 0.00 | 0.21 | 0.21 | 49 | 1017.9 |
| 20260506183804 | 57 | 66 | 5.0 | 14.0 | 0.00 | 0.21 | 0.21 | 46 | 1018.0 |
| 20260506183704 | 57 | 62 | 5.0 | 14.0 | 0.00 | 0.21 | 0.21 | 48 | 1018.0 |
| 20260506183604 | 57 | 63 | 5.0 | 14.0 | 0.00 | 0.21 | 0.21 | 47 | 1018.0 |
| 20260506183504 | 57 | 65 | 5.0 | 14.0 | 0.00 | 0.21 | 0.21 | 48 | 1017.9 |
| 20260506183404 | 57 | 63 | 4.0 | 14.0 | 0.00 | 0.21 | 0.21 | 48 | 1018.0 |
| 20260506183204 | 57 | 57 | 4.0 | 14.0 | 0.00 | 0.21 | 0.21 | 45 | 1017.9 |
| 20260506183104 | 57 | 48 | 4.0 | 14.0 | 0.00 | 0.21 | 0.21 | 46 | 1018.0 |
| 20260506183005 | 57 | 48 | 4.0 | 14.0 | 0.00 | 0.21 | 0.21 | 46 | 1018.0 |
| 20260506182904 | 57 | 40 | 3.0 | 11.0 | 0.00 | 0.21 | 0.21 | 47 | 1018.0 |
| 20260506182804 | 57 | 33 | 3.0 | 11.0 | 0.00 | 0.21 | 0.21 | 50 | 1018.0 |
| 20260506182705 | 57 | 36 | 3.0 | 11.0 | 0.00 | 0.21 | 0.21 | 50 | 1018.1 |
| 20260506182605 | 57 | 45 | 4.0 | 11.0 | 0.00 | 0.21 | 0.21 | 50 | 1018.1 |
| 20260506182404 | 57 | 30 | 4.0 | 11.0 | 0.00 | 0.21 | 0.21 | 50 | 1018.1 |
| 20260506182306 | 57 | 24 | 4.0 | 11.0 | 0.00 | 0.21 | 0.21 | 49 | 1018.1 |
| 20260506182205 | 57 | 32 | 4.0 | 11.0 | 0.00 | 0.21 | 0.21 | 50 | 1018.1 |
| 20260506182105 | 57 | 44 | 4.0 | 11.0 | 0.00 | 0.21 | 0.21 | 49 | 1018.1 |
| 20260506182005 | 57 | 38 | 4.0 | 11.0 | 0.00 | 0.21 | 0.21 | 49 | 1018.2 |
| 20260506181905 | 57 | 42 | 4.0 | 11.0 | 0.00 | 0.21 | 0.21 | 50 | 1018.2 |
| 20260506181805 | 57 | 35 | 4.0 | 11.0 | 0.00 | 0.21 | 0.21 | 50 | 1018.2 |
| 20260506181705 | 57 | 42 | 4.0 | 11.0 | 0.00 | 0.21 | 0.21 | 50 | 1018.1 |
| 20260506181604 | 57 | 40 | 5.0 | 11.0 | 0.00 | 0.21 | 0.21 | 49 | 1018.2 |
| 20260506181504 | 57 | 52 | 5.0 | 11.0 | 0.00 | 0.21 | 0.21 | 49 | 1018.2 |
| 20260506181404 | 57 | 59 | 5.0 | 11.0 | 0.00 | 0.21 | 0.21 | 50 | 1018.3 |
| 20260506181204 | 57 | 67 | 5.0 | 14.0 | 0.00 | 0.21 | 0.21 | 50 | 1018.4 |
| 20260506181104 | 56 | 70 | 6.0 | 14.0 | 0.00 | 0.21 | 0.21 | 50 | 1018.3 |
| 20260506181004 | 56 | 74 | 6.0 | 14.0 | 0.00 | 0.21 | 0.21 | 51 | 1018.4 |
| 20260506180904 | 56 | 76 | 5.0 | 14.0 | 0.00 | 0.21 | 0.21 | 50 | 1018.4 |
| 20260506180704 | 57 | 83 | 5.0 | 14.0 | 0.00 | 0.21 | 0.21 | 51 | 1018.4 |
| 20260506180604 | 56 | 79 | 5.0 | 14.0 | 0.00 | 0.21 | 0.21 | 51 | 1018.4 |
| 20260506180504 | 57 | 77 | 4.0 | 14.0 | 0.00 | 0.21 | 0.21 | 53 | 1018.4 |
| 20260506180404 | 57 | 80 | 4.0 | 14.0 | 0.00 | 0.21 | 0.21 | 52 | 1018.4 |
| 20260506180304 | 57 | 84 | 4.0 | 14.0 | 0.00 | 0.21 | 0.21 | 50 | 1018.4 |
| 20260506180104 | 57 | 76 | 3.0 | 10.0 | 0.00 | 0.21 | 0.21 | 51 | 1018.6 |
| 20260506175904 | 57 | 50 | 3.0 | 9.0 | 0.00 | 0.21 | 0.21 | 53 | 1018.5 |
| 20260506175804 | 57 | 46 | 3.0 | 9.0 | 0.00 | 0.21 | 0.21 | 52 | 1018.5 |
| 20260506175704 | 57 | 48 | 3.0 | 9.0 | 0.00 | 0.21 | 0.21 | 52 | 1018.5 |
| 20260506175604 | 57 | 59 | 3.0 | 9.0 | 0.00 | 0.21 | 0.21 | 52 | 1018.5 |
| 20260506175504 | 57 | 44 | 3.0 | 8.0 | 0.00 | 0.21 | 0.21 | 52 | 1018.5 |
| 20260506175404 | 57 | 32 | 3.0 | 8.0 | 0.00 | 0.21 | 0.21 | 53 | 1018.5 |
| 20260506175306 | 57 | 28 | 3.0 | 8.0 | 0.00 | 0.21 | 0.21 | 52 | 1018.5 |
| 20260506175204 | 57 | 31 | 4.0 | 10.0 | 0.00 | 0.21 | 0.21 | 51 | 1018.5 |
| 20260506175104 | 57 | 34 | 4.0 | 10.0 | 0.00 | 0.21 | 0.21 | 52 | 1018.5 |
| 20260506175005 | 57 | 34 | 4.0 | 11.0 | 0.00 | 0.21 | 0.21 | 53 | 1018.5 |
| 20260506174905 | 57 | 31 | 4.0 | 11.0 | 0.00 | 0.21 | 0.21 | 54 | 1018.5 |
| 20260506174804 | 57 | 30 | 4.0 | 11.0 | 0.00 | 0.21 | 0.21 | 55 | 1018.5 |
| 20260506174605 | 56 | 35 | 4.0 | 11.0 | 0.00 | 0.21 | 0.21 | 53 | 1018.5 |
| 20260506174504 | 56 | 38 | 4.0 | 11.0 | 0.00 | 0.21 | 0.21 | 51 | 1018.5 |
| 20260506174304 | 56 | 51 | 3.0 | 11.0 | 0.00 | 0.21 | 0.21 | 52 | 1018.6 |
| 20260506174204 | 57 | 49 | 3.0 | 11.0 | 0.00 | 0.21 | 0.21 | 53 | 1018.5 |
| 20260506174104 | 56 | 41 | 3.0 | 13.0 | 0.00 | 0.21 | 0.21 | 54 | 1018.5 |
| 20260506174004 | 56 | 42 | 4.0 | 13.0 | 0.00 | 0.21 | 0.21 | 57 | 1018.5 |
| 20260506173904 | 56 | 41 | 4.0 | 13.0 | 0.00 | 0.21 | 0.21 | 56 | 1018.5 |
| 20260506173804 | 56 | 34 | 4.0 | 13.0 | 0.00 | 0.21 | 0.21 | 55 | 1018.6 |
| 20260506173605 | 56 | 29 | 4.0 | 13.0 | 0.00 | 0.21 | 0.21 | 57 | 1018.6 |
| 20260506173504 | 56 | 23 | 4.0 | 13.0 | 0.00 | 0.21 | 0.21 | 58 | 1018.6 |
| 20260506173404 | 55 | 14 | 4.0 | 13.0 | 0.00 | 0.21 | 0.21 | 56 | 1018.6 |
| 20260506173304 | 55 | 9 | 4.0 | 13.0 | 0.00 | 0.21 | 0.21 | 56 | 1018.7 |
| 20260506173204 | 55 | 6 | 4.0 | 13.0 | 0.00 | 0.21 | 0.21 | 56 | 1018.7 |
| 20260506173104 | 55 | 5 | 4.0 | 13.0 | 0.00 | 0.21 | 0.21 | 56 | 1018.6 |
| 20260506173004 | 55 | 9 | 4.0 | 11.0 | 0.00 | 0.21 | 0.21 | 55 | 1018.7 |
| 20260506172904 | 55 | 12 | 4.0 | 11.0 | 0.00 | 0.21 | 0.21 | 56 | 1018.6 |
| 20260506172804 | 55 | 22 | 4.0 | 11.0 | 0.00 | 0.21 | 0.21 | 58 | 1018.7 |
| 20260506172704 | 55 | 21 | 4.0 | 11.0 | 0.00 | 0.21 | 0.21 | 57 | 1018.7 |
| 20260506172605 | 55 | 20 | 4.0 | 11.0 | 0.00 | 0.21 | 0.21 | 56 | 1018.7 |
| 20260506172405 | 55 | 36 | 3.0 | 11.0 | 0.00 | 0.21 | 0.21 | 59 | 1018.7 |
| 20260506172307 | 55 | 39 | 3.0 | 11.0 | 0.00 | 0.21 | 0.21 | 60 | 1018.8 |
| 20260506172105 | 55 | 53 | 3.0 | 7.0 | 0.00 | 0.21 | 0.21 | 59 | 1018.7 |
| 20260506172004 | 55 | 56 | 3.0 | 7.0 | 0.00 | 0.21 | 0.21 | 59 | 1018.7 |
| 20260506171805 | 55 | 52 | 3.0 | 7.0 | 0.00 | 0.21 | 0.21 | 61 | 1018.8 |
| 20260506171604 | 54 | 45 | 3.0 | 8.0 | 0.00 | 0.21 | 0.21 | 63 | 1018.8 |
| 20260506171504 | 54 | 57 | 3.0 | 9.0 | 0.00 | 0.21 | 0.21 | 62 | 1018.8 |
| 20260506171305 | 54 | 54 | 3.0 | 9.0 | 0.00 | 0.21 | 0.21 | 63 | 1018.9 |
| 20260506171205 | 54 | 55 | 3.0 | 9.0 | 0.00 | 0.21 | 0.21 | 63 | 1018.9 |
| 20260506171104 | 54 | 49 | 3.0 | 9.0 | 0.00 | 0.21 | 0.21 | 63 | 1018.9 |
| 20260506171005 | 54 | 47 | 4.0 | 9.0 | 0.00 | 0.21 | 0.21 | 63 | 1018.9 |
| 20260506170805 | 54 | 61 | 4.0 | 11.0 | 0.00 | 0.21 | 0.21 | 63 | 1018.7 |
| 20260506170604 | 54 | 68 | 3.0 | 11.0 | 0.00 | 0.21 | 0.21 | 64 | 1018.7 |
| 20260506170505 | 54 | 58 | 4.0 | 11.0 | 0.00 | 0.21 | 0.21 | 66 | 1018.7 |
| 20260506170304 | 53 | 57 | 3.0 | 11.0 | 0.00 | 0.21 | 0.21 | 66 | 1018.8 |
| 20260506170205 | 53 | 60 | 3.0 | 11.0 | 0.00 | 0.21 | 0.21 | 66 | 1018.7 |
| 20260506170004 | 54 | 57 | 3.0 | 11.0 | 0.00 | 0.21 | 0.21 | 65 | 1018.7 |